Regional Weather Roundup
Issued by NWS Cleveland, OH

Home | Current Version | Previous Version | Graphics & Text | Print | Product List | Glossary On
Versions: 1 2 3 4 5 6 7 8 9 10 11 12 13 14 15 16 17 18 19 20 21 22 23 24 25 26 27 28 29 30 31 32 33 34 35 36 37 38 39 40 41 42 43 44 45 46 47 48 49 50
000
ASUS41 KCLE 051102
RWRCLE
OHIO REGIONAL WEATHER ROUNDUP
NATIONAL WEATHER SERVICE CLEVELAND, OH
700 AM EDT TUE MAY 05 2015

NOTE: "FAIR" INDICATES FEW OR NO CLOUDS BELOW 12,000 FEET WITH NO
SIGNIFICANT WEATHER AND/OR OBSTRUCTIONS TO VISIBILITY.

OHZ001>008-015>018-024>027-034-035-043-044-051200-
   NORTHWEST OHIO

CITY           SKY/WX    TMP DP  RH WIND       PRES   REMARKS
DEFIANCE       LGT RAIN  60  59  96 S3        30.24R FOG
FINDLAY        PTCLDY    60  57  89 CALM      30.22R FOG
TOLEDO EXPRESS CLOUDY    58  53  84 E7        30.24R
TOLEDO EXEC    CLOUDY    58  55  90 NE7       30.25R FOG
LIMA           LGT RAIN  61  59  93 SW6       30.24R FOG
$$

OHZ009>014-019>023-028>033-038-089-051200-
   NORTHEAST OHIO

CITY           SKY/WX    TMP DP  RH WIND       PRES   REMARKS
CLE-HOPKINS    CLOUDY    59  57  93 CALM      30.26R FOG
CLE-LAKEFRONT  CLOUDY    56  54  93 E5        30.23S FOG
CUY CO. ARPT   CLOUDY    59  57  94 SE5       30.25  FOG
LORAIN-ELYRIA  CLOUDY    57  56  96 N3        30.25R FOG
ASHTABULA      FOG       54  54 100 CALM      30.26R VSB<1/4
AKRON-CANTON   CLOUDY    59  57  93 CALM      30.26R FOG
WOOSTER        FOG       57  56  96 SE3       30.25S VSB 1/2
MANSFIELD      CLOUDY    59  59 100 S5        30.25R FOG
YOUNGSTOWN     LGT RAIN  57  57 100 CALM      30.26R VSB 3/4
$$

OHZ042-051>053-060>062-070>072-077>081-051200-
  SOUTHWEST OHIO

CITY           SKY/WX    TMP DP  RH WIND       PRES   REMARKS
CINC-COVINGTON MOCLDY    58  55  90 CALM      30.25R
CINC-LUNKEN    PTCLDY    55  55 100 CALM      30.25R FOG
HAMILTON       PTCLDY    57  56  96 CALM      30.25R FOG
DAYTON         CLOUDY    62  60  93 SE3       30.25R FOG
WRIGHT-PAT AFB NOT AVBL
DAYTON GENERAL MOCLDY    61  60  97 CALM      30.24R FOG
WILMINGTON     CLOUDY    60  57  89 CALM      30.25R
$$

OHZ036-037-039>041-045>050-054>059-063>069-073>076-082>088-051200-
  CENTRAL AND SOUTHEAST OHIO

CITY           SKY/WX    TMP DP  RH WIND       PRES   REMARKS
COLUMBUS       CLOUDY    62  61  96 CALM      30.25R
OSU AIRPORT    LGT RAIN  61  59  93 W3        30.26R FOG
BOLTON FIELD   NOT AVBL
RICKENBACK AFB NOT AVBL
NEWARK         CLOUDY    61  60  97 SW3       30.25R FOG
MARION         CLOUDY    61  58  90 SW7       30.25R FOG
LANCASTER      CLOUDY    61  59  93 CALM      30.26R FOG
ZANESVILLE     LGT RAIN  60  59  96 E5        30.26R FOG
NEW PHILLY     RAIN      62  60  93 SE3       30.26R FOG
$$



USA.gov is the U.S. government's official web portal to all federal, state and local government web resources and services.